CW6043 Weather Reports


time (UTC)temp
C
wind
direction
speed
KPH
gust
KPH
rain 1hr
cm
rain 24hr
cm
rain mn
cm
humidity
%
barometer
mb
20260902060015 10 0.0 1.6 0.00 0.00 0.00 87 1008.1
20260902055037 10 0.0 0.0 0.00 0.00 0.00 87 1007.9
20260902054017 11 0.0 0.0 0.00 0.00 0.00 87 1008.0
20260902053017 11 0.0 0.0 0.00 0.00 0.00 86 1008.0
20260902052017 11 0.0 0.0 0.00 0.00 0.00 86 1007.5
20260902051018 11 0.0 0.0 0.00 0.00 0.00 85 1007.8
20260902050017 12 0.0 0.0 0.00 0.00 0.00 85 1007.7
20260902045017 12 0.0 0.0 0.00 0.00 0.00 83 1007.4
20260902044018 12 0.0 0.0 0.00 0.00 0.00 83 1007.5
20260902043017 13 0.0 0.0 0.00 0.00 0.00 82 1007.4
20260902042018 13 0.0 0.0 0.00 0.00 0.00 81 1006.9
20260902041018 13 0.0 0.0 0.00 0.00 0.00 80 1007.2
20260902040018 14 0.0 1.6 0.00 0.00 0.00 80 1007.2
20260902035018 14 0.0 1.6 0.00 0.00 0.00 79 1006.8
20260902034017 15 0.0 0.0 0.00 0.00 0.00 77 1007.0
20260902033018 15 0.0 1.6 0.00 0.00 0.00 77 1007.0
20260902032018 16 0.0 1.6 0.00 0.00 0.00 76 1006.6
20260902031017 16 0.0 0.0 0.00 0.00 0.00 74 1006.6
20260902030036 16 0.0 0.0 0.00 0.00 0.00 73 1006.6
20260902025017 17 0.0 0.0 0.00 0.00 0.00 72 1006.0
20260902024017 17 0.0 0.0 0.00 0.00 0.00 71 1006.2
20260902023017 18 0.0 0.0 0.00 0.00 0.00 70 1006.3
20260902022018 18 0.0 0.0 0.00 0.00 0.00 68 1006.2
20260902021017 19 0.0 0.0 0.00 0.00 0.00 68 1006.4
20260902020017 20 0.0 0.0 0.00 0.00 0.00 65 1006.5
20260902015017 20 0.0 1.6 0.00 0.00 0.00 65 1006.7
20260902014017 20 0.0 0.0 0.00 0.00 0.00 65 1006.8
20260902013017 20 0.0 0.0 0.00 0.00 0.00 66 1006.8
20260902012017 20 0.0 0.0 0.00 0.00 0.00 64 1006.8
20260902011037 20 0.0 0.0 0.00 0.00 0.00 65 1006.8
20260902010018 20 0.0 0.0 0.00 0.00 0.00 64 1006.8
20260902005017 20 0.0 0.0 0.00 0.00 0.00 63 1006.7
20260902004017 20 0.0 0.0 0.00 0.00 0.00 64 1006.7
20260902003017 20 0.0 0.0 0.00 0.00 0.00 68 1007.0
20260902002017 19 0.0 1.6 0.00 0.00 0.00 63 1007.2
20260902001018 20 0.0 0.0 0.00 0.00 0.00 62 1007.2
20260902000017 20 225 1.6 6.4 0.00 0.00 0.00 57 1007.4
20260901235017 21 0.0 1.6 0.00 0.00 0.00 56 1007.7
20260901234017 22 293 1.6 4.8 0.00 0.00 0.00 46 1007.4
20260901233017 23 315 1.6 6.4 0.00 0.00 0.00 43 1007.5
20260901232017 24 0.0 3.2 0.00 0.00 0.00 39 1007.5
20260901231017 25 0.0 1.6 0.00 0.00 0.00 38 1007.6
20260901230017 25 158 1.6 6.4 0.00 0.00 0.00 37 1007.7
20260901225017 25 113 1.6 8.0 0.00 0.00 0.00 36 1007.9
20260901224017 25 113 3.2 11.3 0.00 0.00 0.00 35 1008.0
20260901223017 26 90 3.2 11.3 0.00 0.00 0.00 33 1007.9
20260901222017 26 315 1.6 8.0 0.00 0.00 0.00 33 1007.6
20260901221017 26 293 1.6 4.8 0.00 0.00 0.00 34 1007.6
20260901220017 26 293 3.2 9.7 0.00 0.00 0.00 35 1007.5
20260901215017 26 0.0 1.6 0.00 0.00 0.00 35 1007.6
20260901214016 26 135 1.6 6.4 0.00 0.00 0.00 34 1007.7
20260901213017 27 113 1.6 12.9 0.00 0.00 0.00 33 1007.6
20260901212017 26 270 1.6 4.8 0.00 0.00 0.00 35 1007.8
20260901211057 26 270 1.6 4.8 0.00 0.00 0.00 34 1007.7
20260901210017 26 0.0 1.6 0.00 0.00 0.00 35 1007.5
20260901205016 26 270 1.6 3.2 0.00 0.00 0.00 35 1007.4
20260901204017 26 293 1.6 4.8 0.00 0.00 0.00 35 1007.4
20260901203017 26 225 1.6 4.8 0.00 0.00 0.00 35 1007.4
20260901202016 26 270 1.6 3.2 0.00 0.00 0.00 34 1007.5
20260901201017 26 225 1.6 3.2 0.00 0.00 0.00 35 1007.5
20260901200016 26 135 1.6 4.8 0.00 0.00 0.00 35 1007.6
20260901195016 27 0.0 3.2 0.00 0.00 0.00 35 1007.7
20260901194017 26 0.0 3.2 0.00 0.00 0.00 36 1007.6
20260901193016 26 270 1.6 4.8 0.00 0.00 0.00 36 1007.7
20260901192017 26 315 1.6 4.8 0.00 0.00 0.00 37 1007.9
20260901191016 25 135 1.6 3.2 0.00 0.00 0.00 40 1008.0
20260901190037 24 113 1.6 4.8 0.00 0.00 0.00 41 1008.1
20260901185017 24 90 1.6 4.8 0.00 0.00 0.00 40 1008.4
20260901184017 24 135 1.6 6.4 0.00 0.00 0.00 43 1008.4
20260901183036 24 113 1.6 3.2 0.00 0.00 0.00 43 1008.2
20260901182016 23 0.0 3.2 0.00 0.00 0.00 44 1008.5
20260901181016 22 158 1.6 6.4 0.00 0.00 0.00 45 1008.6
20260901180016 22 0.0 3.2 0.00 0.00 0.00 45 1008.6
20260901175056 22 113 1.6 6.4 0.00 0.00 0.00 46 1008.9
20260901174018 21 90 1.6 3.2 0.00 0.00 0.00 48 1008.8
20260901173016 21 0.0 4.8 0.00 0.00 0.00 52 1008.7
20260901172016 19 0.0 1.6 0.00 0.00 0.00 56 1009.0
20260901171016 18 0.0 3.2 0.00 0.00 0.00 57 1009.1
20260901170036 17 0.0 3.2 0.00 0.00 0.00 58 1009.2
20260901165017 16 0.0 3.2 0.00 0.00 0.00 62 1009.3
20260901164016 16 0.0 1.6 0.00 0.00 0.00 64 1009.2
20260901163018 15 0.0 1.6 0.00 0.00 0.00 65 1009.3
20260901162036 14 0.0 1.6 0.00 0.00 0.00 67 1009.3
20260901161016 13 0.0 1.6 0.00 0.00 0.00 69 1009.1
20260901160016 12 225 1.6 4.8 0.00 0.00 0.00 70 1009.1
20260901155017 11 0.0 1.6 0.00 0.00 0.00 74 1009.9
20260901154018 10 0.0 1.6 0.00 0.00 0.00 75 1009.9
20260901153017 10 0.0 1.6 0.00 0.00 0.00 78 1009.2
20260901152016 9 0.0 0.0 0.00 0.00 0.00 79 1009.8
20260901151017 8 0.0 0.0 0.00 0.00 0.00 81 1010.0
20260901150016 7 0.0 0.0 0.00 0.00 0.00 83 1010.0
20260901145016 6 0.0 1.6 0.00 0.00 0.00 85 1010.4
20260901144016 5 0.0 0.0 0.00 0.00 0.00 86 1010.0
20260901143016 5 0.0 0.0 0.00 0.00 0.00 87 1010.2
20260901142016 4 0.0 0.0 0.00 0.00 0.00 88 1010.9
20260901141016 3 0.0 0.0 0.00 0.00 0.00 88 1010.6
20260901140016 3 0.0 0.0 0.00 0.00 0.00 88 1010.6
20260901135016 2 0.0 0.0 0.00 0.00 0.00 88 1010.7
20260901134016 2 0.0 0.0 0.00 0.00 0.00 87 1010.7
20260901133017 2 0.0 0.0 0.00 0.00 0.00 88 1010.7
20260901132016 2 0.0 0.0 0.00 0.00 0.00 87 1010.6
20260901131016 2 0.0 0.0 0.00 0.00 0.00 87 1010.7
20260901130036 2 0.0 0.0 0.00 0.00 0.00 87 1010.9
20260901125036 2 0.0 0.0 0.00 0.00 0.00 87 1010.9
20260901124016 2 0.0 0.0 0.00 0.00 0.00 87 1010.8
20260901123016 2 0.0 0.0 0.00 0.00 0.00 87 1010.9
20260901122016 2 0.0 0.0 0.00 0.00 0.00 87 1010.9
20260901121016 2 0.0 0.0 0.00 0.00 0.00 86 1010.9
20260901120036 2 0.0 0.0 0.00 0.00 0.00 86 1010.8
20260901115018 3 0.0 0.0 0.00 0.00 0.00 86 1010.7
20260901114016 3 0.0 0.0 0.00 0.00 0.00 85 1010.7
20260901113016 3 0.0 0.0 0.00 0.00 0.00 86 1010.7
20260901112016 3 0.0 0.0 0.00 0.00 0.00 85 1010.6
20260901111036 3 0.0 0.0 0.00 0.00 0.00 85 1010.8
20260901110016 3 0.0 0.0 0.00 0.00 0.00 84 1010.8
20260901105017 3 0.0 0.0 0.00 0.00 0.00 84 1010.7
20260901104016 4 0.0 0.0 0.00 0.00 0.00 84 1010.8
20260901103016 4 0.0 0.0 0.00 0.00 0.00 84 1010.8
20260901102016 4 0.0 0.0 0.00 0.00 0.00 83 1010.6
20260901101015 4 0.0 0.0 0.00 0.00 0.00 83 1010.6
20260901100016 4 0.0 0.0 0.00 0.00 0.00 83 1010.6
20260901095017 5 0.0 0.0 0.00 0.00 0.00 83 1010.6
20260901094016 5 0.0 0.0 0.00 0.00 0.00 82 1010.6
20260901093016 5 0.0 0.0 0.00 0.00 0.00 83 1010.6
20260901092017 5 0.0 0.0 0.00 0.00 0.00 82 1010.7
20260901091016 5 0.0 0.0 0.00 0.00 0.00 81 1010.6
20260901090017 5 0.0 0.0 0.00 0.00 0.00 81 1010.4
20260901085015 5 0.0 0.0 0.00 0.00 0.00 80 1010.6
20260901084016 6 0.0 0.0 0.00 0.00 0.00 80 1010.7
20260901083016 6 0.0 0.0 0.00 0.00 0.00 80 1010.8
20260901082016 6 0.0 0.0 0.00 0.00 0.00 79 1010.5
20260901081016 6 0.0 0.0 0.00 0.00 0.00 79 1010.7
20260901080058 6 0.0 0.0 0.00 0.00 0.00 79 1010.7
20260901075018 6 0.0 0.0 0.00 0.00 0.00 78 1010.8
20260901074037 7 0.0 0.0 0.00 0.00 0.00 77 1010.8
20260901073018 7 0.0 0.0 0.00 0.00 0.00 77 1010.8
20260901072018 7 0.0 0.0 0.00 0.00 0.00 76 1010.7
20260901071018 7 0.0 0.0 0.00 0.00 0.00 76 1010.7
20260901070017 7 0.0 0.0 0.00 0.00 0.00 75 1010.6
20260901065016 8 0.0 0.0 0.00 0.00 0.00 74 1010.6
20260901064016 8 0.0 0.0 0.00 0.00 0.00 74 1010.6
20260901063016 8 0.0 0.0 0.00 0.00 0.00 73 1010.7
20260901062016 9 0.0 0.0 0.00 0.00 0.00 72 1010.5
20260901061016 9 0.0 0.0 0.00 0.00 0.00 71 1010.5